| time (UTC) | temp C | wind direction | speed KPH | gust KPH | rain 1hr cm | rain 24hr cm | rain mn cm | humidity % | barometer mb |
| 20260504151020 | 20 | 189 | 0.0 | 0.0 | 0.00 | 0.00 | 0.00 | 37 | 1030.8 |
| 20260504141221 | 17 | 198 | 0.0 | 0.0 | 0.00 | 0.00 | 0.00 | 44 | 1031.3 |
| 20260504140222 | 17 | 112 | 0.0 | 0.0 | 0.00 | 0.00 | 0.00 | 46 | 1031.1 |
| 20260504130430 | 13 | 123 | 0.0 | 0.0 | 0.00 | 0.00 | 0.00 | 53 | 1031.9 |
| 20260504081919 | 7 | 112 | 0.0 | 0.0 | 0.00 | 0.00 | 0.00 | 78 | 1032.6 |
| 20260504080920 | 7 | 180 | 0.0 | 0.0 | 0.00 | 0.00 | 0.00 | 81 | 1032.4 |
| 20260504060120 | 6 | 112 | 0.0 | 0.0 | 0.00 | 0.00 | 0.00 | 83 | 1032.8 |
| 20260504050320 | 5 | 112 | 0.0 | 0.0 | 0.00 | 0.00 | 0.00 | 83 | 1032.7 |
| 20260504045323 | 5 | 112 | 0.0 | 0.0 | 0.00 | 0.00 | 0.00 | 82 | 1032.6 |
| 20260504044420 | 5 | 112 | 0.0 | 0.0 | 0.00 | 0.00 | 0.00 | 83 | 1032.5 |
| 20260504043419 | 4 | 112 | 0.0 | 0.0 | 0.00 | 0.00 | 0.00 | 83 | 1032.5 |
| 20260504042437 | 4 | 112 | 0.0 | 0.0 | 0.00 | 0.00 | 0.00 | 82 | 1032.3 |
| 20260504041419 | 4 | 112 | 0.0 | 0.0 | 0.00 | 0.00 | 0.00 | 81 | 1032.4 |
| 20260504040419 | 4 | 112 | 0.0 | 0.0 | 0.00 | 0.00 | 0.00 | 81 | 1032.6 |
| 20260504035425 | 4 | 112 | 0.0 | 0.0 | 0.00 | 0.00 | 0.00 | 81 | 1032.6 |
| 20260504034424 | 4 | 112 | 0.0 | 0.0 | 0.00 | 0.00 | 0.00 | 79 | 1032.4 |
| 20260504033524 | 4 | 112 | 0.0 | 0.0 | 0.00 | 0.00 | 0.00 | 79 | 1032.5 |
| 20260504032526 | 4 | 112 | 0.0 | 0.0 | 0.00 | 0.00 | 0.00 | 78 | 1032.4 |
| 20260504031525 | 4 | 112 | 0.0 | 0.0 | 0.00 | 0.00 | 0.00 | 78 | 1032.4 |
| 20260504030527 | 4 | 112 | 0.0 | 0.0 | 0.00 | 0.00 | 0.00 | 78 | 1032.3 |
| 20260504025525 | 3 | 112 | 0.0 | 0.0 | 0.00 | 0.00 | 0.00 | 77 | 1032.1 |
| 20260504024525 | 3 | 112 | 0.0 | 0.0 | 0.00 | 0.00 | 0.00 | 76 | 1032.2 |
| 20260504023525 | 4 | 112 | 0.0 | 0.0 | 0.00 | 0.00 | 0.00 | 75 | 1032.3 |
| 20260504023425 | 4 | 112 | 0.0 | 0.0 | 0.00 | 0.00 | 0.00 | 75 | 1032.3 |
| 20260504022426 | 4 | 112 | 0.0 | 0.0 | 0.00 | 0.00 | 0.00 | 73 | 1032.3 |
| 20260504020441 | 5 | 112 | 0.0 | 0.0 | 0.00 | 0.00 | 0.00 | 69 | 1032.1 |
| 20260504015527 | 5 | 112 | 0.0 | 0.0 | 0.00 | 0.00 | 0.00 | 67 | 1032.1 |
| 20260504013526 | 6 | 112 | 0.0 | 0.0 | 0.00 | 0.00 | 0.00 | 66 | 1032.0 |
| 20260504012524 | 6 | 206 | 0.0 | 0.0 | 0.00 | 0.00 | 0.00 | 66 | 1032.0 |
| 20260504010525 | 6 | 180 | 0.0 | 0.0 | 0.00 | 0.00 | 0.00 | 65 | 1031.7 |
| 20260504005623 | 7 | 180 | 0.0 | 0.0 | 0.00 | 0.00 | 0.00 | 62 | 1031.8 |
| 20260504003624 | 8 | 202 | 0.0 | 0.0 | 0.00 | 0.00 | 0.00 | 56 | 1031.6 |
| 20260504002624 | 10 | 202 | 0.0 | 0.0 | 0.00 | 0.00 | 0.00 | 52 | 1031.6 |
| 20260504001723 | 11 | 202 | 0.0 | 0.0 | 0.00 | 0.00 | 0.00 | 50 | 1031.7 |
| 20260504000725 | 11 | 202 | 0.0 | 0.0 | 0.00 | 0.00 | 0.00 | 48 | 1031.5 |
| 20260503235725 | 12 | 202 | 0.0 | 0.0 | 0.00 | 0.00 | 0.00 | 44 | 1031.4 |
| 20260503234725 | 13 | 202 | 0.0 | 0.0 | 0.00 | 0.00 | 0.00 | 38 | 1031.4 |
| 20260503233725 | 15 | 202 | 0.0 | 0.0 | 0.00 | 0.00 | 0.00 | 32 | 1031.2 |
| 20260503231725 | 16 | 202 | 0.0 | 0.0 | 0.00 | 0.00 | 0.00 | 31 | 1031.0 |
| 20260503230725 | 16 | 202 | 0.0 | 0.0 | 0.00 | 0.00 | 0.00 | 31 | 1031.0 |
| 20260503225726 | 16 | 202 | 0.0 | 0.0 | 0.00 | 0.00 | 0.00 | 30 | 1031.1 |
| 20260503224724 | 16 | 278 | 0.0 | 0.0 | 0.00 | 0.00 | 0.00 | 31 | 1031.1 |
| 20260503223725 | 16 | 202 | 0.0 | 0.0 | 0.00 | 0.00 | 0.00 | 30 | 1031.0 |
| 20260503222824 | 16 | 210 | 0.0 | 0.0 | 0.00 | 0.00 | 0.00 | 30 | 1030.9 |
| 20260503221826 | 16 | 202 | 0.0 | 0.0 | 0.00 | 0.00 | 0.00 | 30 | 1031.1 |
| 20260503220825 | 16 | 247 | 0.0 | 0.0 | 0.00 | 0.00 | 0.00 | 30 | 1031.0 |
| 20260503215824 | 16 | 202 | 0.0 | 0.0 | 0.00 | 0.00 | 0.00 | 30 | 1031.2 |
| 20260503214724 | 16 | 210 | 0.0 | 0.0 | 0.00 | 0.00 | 0.00 | 30 | 1031.2 |
| 20260503212823 | 16 | 257 | 0.0 | 0.0 | 0.00 | 0.00 | 0.00 | 31 | 1031.1 |
| 20260503211824 | 16 | 238 | 0.0 | 0.0 | 0.00 | 0.00 | 0.00 | 30 | 1031.2 |
| 20260503210825 | 16 | 202 | 0.0 | 0.0 | 0.00 | 0.00 | 0.00 | 31 | 1031.2 |
| 20260503205924 | 16 | 204 | 0.0 | 0.0 | 0.00 | 0.00 | 0.00 | 31 | 1031.3 |
| 20260503204924 | 16 | 254 | 0.0 | 0.0 | 0.00 | 0.00 | 0.00 | 31 | 1031.3 |
| 20260503203924 | 15 | 237 | 0.0 | 0.0 | 0.00 | 0.00 | 0.00 | 31 | 1031.3 |
| 20260503203023 | 16 | 215 | 0.0 | 0.0 | 0.00 | 0.00 | 0.00 | 31 | 1031.4 |
| 20260503201024 | 16 | 237 | 0.0 | 0.0 | 0.00 | 0.00 | 0.00 | 32 | 1031.8 |
| 20260503200923 | 15 | 204 | 0.0 | 0.0 | 0.00 | 0.00 | 0.00 | 32 | 1031.8 |
| 20260503195925 | 16 | 225 | 0.0 | 0.0 | 0.00 | 0.00 | 0.00 | 31 | 1032.0 |
| 20260503195823 | 16 | 203 | 0.0 | 0.0 | 0.00 | 0.00 | 0.00 | 31 | 1032.0 |
| 20260503194922 | 16 | 228 | 0.0 | 0.0 | 0.00 | 0.00 | 0.00 | 32 | 1032.2 |
| 20260503193925 | 16 | 278 | 0.0 | 0.0 | 0.00 | 0.00 | 0.00 | 33 | 1032.1 |
| 20260503192926 | 15 | 214 | 0.0 | 0.0 | 0.00 | 0.00 | 0.00 | 32 | 1032.3 |
| 20260503192022 | 15 | 215 | 0.0 | 0.0 | 0.00 | 0.00 | 0.00 | 32 | 1032.5 |
| 20260503191024 | 15 | 243 | 0.0 | 0.0 | 0.00 | 0.00 | 0.00 | 32 | 1032.7 |
| 20260503185123 | 15 | 233 | 0.0 | 0.0 | 0.00 | 0.00 | 0.00 | 33 | 1032.8 |
| 20260503183125 | 14 | 293 | 0.0 | 0.0 | 0.00 | 0.00 | 0.00 | 33 | 1033.3 |
| 20260503182124 | 15 | 306 | 0.0 | 0.0 | 0.00 | 0.00 | 0.00 | 34 | 1033.2 |
| 20260503181123 | 14 | 225 | 0.0 | 0.0 | 0.00 | 0.00 | 0.00 | 34 | 1033.2 |
| 20260503180125 | 13 | 250 | 0.0 | 0.0 | 0.00 | 0.00 | 0.00 | 35 | 1033.4 |
| 20260503175224 | 13 | 286 | 0.0 | 0.0 | 0.00 | 0.00 | 0.00 | 35 | 1033.4 |
| 20260503174324 | 13 | 291 | 0.0 | 0.0 | 0.00 | 0.00 | 0.00 | 36 | 1033.4 |
| 20260503173325 | 13 | 258 | 0.0 | 0.0 | 0.00 | 0.00 | 0.00 | 37 | 1033.5 |
| 20260503172324 | 13 | 251 | 0.0 | 0.0 | 0.00 | 0.00 | 0.00 | 36 | 1033.5 |
| 20260503171324 | 12 | 295 | 0.0 | 0.0 | 0.00 | 0.00 | 0.00 | 37 | 1033.5 |
| 20260503171240 | 12 | 296 | 0.0 | 0.0 | 0.00 | 0.00 | 0.00 | 37 | 1033.4 |